Location: ??????????
(54.4061°N, 22.6114°E)
Time: 20:30:58
(UTC+00:00)

STARLINK-78 - Pass Details

Date: 23 October 2019
Orbit: 549 x 551 km, 53.0° (Epoch: 17 November)

Event Time Altitude Azimuth Distance (km) Brightness Sun altitude
Rises 17:41:50 0° 280° (W) 2,721 8.7 -22.0°
Reaches altitude 10° 17:44:07 10° 276° (W) 1,826 7.4 -22.4°
Maximum altitude 17:48:08 51° 200° (SSW) 695 4.1 -22.9°
Enters shadow 17:48:14 51° 194° (SSW) 697 4.0 -23.0°
